EW8730 Saint Petersburg FL US current weather conditions

sailwx.info

Wind from 276 at 0 knots gusting 3

Air temperature 16.1° C
Dewpoint 11.5° C

Last reported at 2019-Mar-22 05:10 UTC.
Time now 2019-Mar-22 05:55 UTC

Location: N 27°47' W 082°41'.
View on Google Maps.

See reports from other nearby stations

  
Tides and Currents Weather Stations Pressure Air Temp Water Temp Dewpoint Dewpoint Depression Visibility Wind Speed Wind Dir Waves Ship Positions
date/time (UTC)wind fromknots sea level pressurealtimeterstation pressurevisibilityair tempwater tempwave heightnotes
2019-Mar-22 05:10 276 0 gusting 3 16.1
2019-Mar-22 05:05 316 16.1
2019-Mar-22 05:00 304 0 gusting 4 16.1
2019-Mar-22 04:55 332 0 gusting 4 16.1
2019-Mar-22 04:50 295 0 gusting 4 16.1
2019-Mar-22 04:45 278 0 gusting 4 16.7
2019-Mar-22 04:40 326 0 gusting 6 16.7
2019-Mar-22 04:35 311 0 gusting 6 16.7
2019-Mar-22 04:30 335 0 gusting 6 16.7
2019-Mar-22 04:25 326 0 gusting 4 16.7
2019-Mar-22 04:20 252 0 gusting 5 16.7
2019-Mar-22 04:15 318 0 gusting 5 16.7
2019-Mar-22 04:10 276 1 gusting 5 16.7
2019-Mar-22 04:05 304 1 gusting 6 16.7
2019-Mar-22 04:00 346 1 gusting 6 16.7
2019-Mar-22 03:55 263 1 gusting 6 16.7
2019-Mar-22 03:50 335 1 gusting 6 16.7
2019-Mar-22 03:45 273 1 gusting 4 17.2
2019-Mar-22 03:40 008 1 gusting 6 17.2
2019-Mar-22 03:35 309 1 gusting 6 17.2
2019-Mar-22 03:30 304 1 gusting 4 17.2
2019-Mar-22 03:24 327 1 gusting 6 17.2
2019-Mar-22 03:19 331 1 gusting 6 17.2
2019-Mar-22 03:14 282 1 gusting 6 17.2
2019-Mar-22 03:09 354 1 gusting 8 17.2
2019-Mar-22 03:04 330 0 gusting 4 17.2
2019-Mar-22 02:59 296 0 gusting 4 17.2
2019-Mar-22 02:54 273 0 gusting 4 17.2
2019-Mar-22 02:49 281 0 gusting 3 17.2
2019-Mar-22 02:44 319 1 gusting 6 17.2
2019-Mar-22 02:39 283 1 gusting 6 17.2
2019-Mar-22 02:35 316 0 gusting 7 17.2
2019-Mar-22 02:29 322 1 gusting 7 17.8
2019-Mar-22 02:24 322 1 gusting 5 17.8
2019-Mar-22 02:20 277 1 gusting 5 17.8
2019-Mar-22 02:14 328 1 gusting 4 17.8
2019-Mar-22 02:09 240 1 gusting 6 17.8
2019-Mar-22 02:04 266 1 gusting 6 17.8
2019-Mar-22 01:59 311 1 gusting 6 17.8
2019-Mar-22 01:54 320 1 gusting 6 17.8
2019-Mar-22 01:50 310 1 gusting 6 17.8
2019-Mar-22 01:44 278 1 gusting 5 17.8
2019-Mar-22 01:39 352 1 gusting 9 18.3
2019-Mar-22 01:34 320 1 gusting 9 18.3
2019-Mar-22 01:29 266 1 gusting 6 18.3
2019-Mar-22 01:24 269 2 gusting 7 18.3
2019-Mar-22 01:19 319 2 gusting 8 18.3
2019-Mar-22 01:14 340 1 gusting 8 18.3
2019-Mar-22 01:09 073 1 gusting 6 18.3
2019-Mar-22 01:04 342 1 gusting 6 18.3
2019-Mar-22 00:59 026 1 gusting 7 18.3
2019-Mar-22 00:54 270 3 gusting 8 18.3
2019-Mar-22 00:49 311 3 gusting 8 18.3
2019-Mar-22 00:44 323 2 gusting 8 18.3
2019-Mar-22 00:39 288 1 gusting 6 18.3
2019-Mar-22 00:34 272 1 gusting 7 18.3
2019-Mar-22 00:29 320 1 gusting 7 18.3
2019-Mar-22 00:24 314 1 gusting 4 18.3
2019-Mar-22 00:19 297 1 gusting 7 18.9
2019-Mar-22 00:14 295 1 gusting 7 18.9
2019-Mar-22 00:09 265 0 gusting 4 18.9
2019-Mar-22 00:04 259 1 gusting 6 18.9
2019-Mar-21 23:59 311 1 gusting 6 18.9
2019-Mar-21 23:54 295 1 gusting 6 18.9
2019-Mar-21 23:49 327 2 gusting 6 18.9
2019-Mar-21 23:44 319 2 gusting 6 18.9
2019-Mar-21 23:39 344 1 gusting 6 18.9
2019-Mar-21 23:34 294 1 gusting 6 18.9
2019-Mar-21 23:29 288 2 gusting 6 19.4
2019-Mar-21 23:24 314 2 gusting 7 19.4
2019-Mar-21 23:19 225 2 gusting 7 19.4
2019-Mar-21 23:14 276 2 gusting 6 19.4
2019-Mar-21 23:09 250 2 gusting 8 20.0
2019-Mar-21 23:04 297 3 gusting 8 20.0
2019-Mar-21 22:59 334 2 gusting 6 20.0
2019-Mar-21 22:54 279 2 gusting 6 20.6
2019-Mar-21 22:49 297 2 gusting 6 20.6
2019-Mar-21 22:44 356 1 gusting 5 20.6
2019-Mar-21 22:39 287 1 gusting 5 21.1
2019-Mar-21 22:34 327 1 gusting 5 20.6
2019-Mar-21 22:29 195 2 gusting 6 20.6
2019-Mar-21 22:24 290 3 gusting 8 20.6
2019-Mar-21 22:19 205 2 gusting 8 21.1
2019-Mar-21 22:14 298 2 gusting 6 21.1
2019-Mar-21 22:09 301 2 gusting 7 21.1
2019-Mar-21 22:04 207 3 gusting 9 21.1
2019-Mar-21 21:59 283 3 gusting 9 21.1
2019-Mar-21 21:54 318 3 gusting 7 21.1
2019-Mar-21 21:49 312 3 gusting 8 21.1
2019-Mar-21 21:44 279 3 gusting 8 21.1
2019-Mar-21 21:39 021 3 gusting 8 21.1
2019-Mar-21 21:34 294 3 gusting 7 21.7
2019-Mar-21 21:29 256 2 gusting 6 21.7
2019-Mar-21 21:24 300 2 gusting 6 21.7
2019-Mar-21 21:19 313 2 gusting 7 21.7
2019-Mar-21 21:14 309 2 gusting 7 21.7
2019-Mar-21 21:09 280 2 gusting 7 21.7
2019-Mar-21 21:04 290 3 gusting 8 21.7
2019-Mar-21 20:59 345 3 gusting 8 21.7
2019-Mar-21 20:54 280 3 gusting 7 21.7
2019-Mar-21 20:49 309 2 gusting 7 22.2
2019-Mar-21 20:44 262 2 gusting 6 22.2
2019-Mar-21 20:39 300 2 gusting 7 22.2
2019-Mar-21 20:34 285 2 gusting 7 22.2
2019-Mar-21 20:29 329 1 gusting 6 22.2
2019-Mar-21 20:24 308 2 gusting 6 22.2
2019-Mar-21 20:19 292 2 gusting 8 21.7
2019-Mar-21 20:14 284 3 gusting 8 21.7
2019-Mar-21 20:09 005 2 gusting 7 21.7
2019-Mar-21 20:04 311 2 gusting 7 22.2
2019-Mar-21 19:59 278 3 gusting 7 21.7
2019-Mar-21 19:54 323 3 gusting 7 21.7
2019-Mar-21 19:49 271 2 gusting 7 21.7
2019-Mar-21 19:44 307 1 gusting 8 21.7
2019-Mar-21 19:39 302 1 gusting 8 21.7
2019-Mar-21 19:34 344 2 gusting 7 21.7
2019-Mar-21 19:29 288 3 gusting 11 21.7
2019-Mar-21 19:24 020 3 gusting 11 21.7
2019-Mar-21 19:19 268 2 gusting 8 21.7
2019-Mar-21 19:14 350 2 gusting 8 21.7
2019-Mar-21 19:09 331 2 gusting 8 21.7
2019-Mar-21 19:04 285 2 gusting 8 21.7
2019-Mar-21 18:59 328 3 gusting 9 21.7
2019-Mar-21 18:54 322 3 gusting 12 21.7
2019-Mar-21 18:49 003 3 gusting 12 21.7
2019-Mar-21 18:44 345 3 gusting 8 21.7
2019-Mar-21 18:39 010 3 gusting 7 21.7
2019-Mar-21 18:34 305 3 gusting 7 21.7
2019-Mar-21 18:29 295 1 gusting 7 21.7
2019-Mar-21 18:24 325 1 gusting 6 21.7
2019-Mar-21 18:19 350 1 gusting 6 21.7
2019-Mar-21 18:14 336 2 gusting 6 21.7
2019-Mar-21 18:09 317 2 gusting 6 21.1
2019-Mar-21 18:04 337 2 gusting 12 21.7
2019-Mar-21 17:59 327 2 gusting 12 21.1
2019-Mar-21 17:54 296 2 gusting 7 21.1
2019-Mar-21 17:49 301 3 gusting 7 21.1
2019-Mar-21 17:44 264 2 gusting 7 21.1
2019-Mar-21 17:39 281 1 gusting 6 21.1
2019-Mar-21 17:34 352 1 gusting 6 21.1
2019-Mar-21 17:29 353 2 gusting 6 21.1
2019-Mar-21 17:24 281 1 gusting 6 21.1
2019-Mar-21 17:19 358 1 gusting 6 21.1
2019-Mar-21 17:14 254 1 gusting 6 21.1
2019-Mar-21 17:09 340 0 gusting 6 21.1
2019-Mar-21 17:04 284 0 gusting 4 21.1
2019-Mar-21 16:59 321 0 gusting 5 21.1
2019-Mar-21 16:54 295 1 gusting 6 21.1
2019-Mar-21 16:49 322 1 gusting 6 21.1
2019-Mar-21 16:44 269 0 gusting 5 21.1
2019-Mar-21 16:39 305 0 gusting 5 20.6
2019-Mar-21 16:34 316 0 gusting 5 20.6
2019-Mar-21 16:29 299 0 gusting 5 20.6
2019-Mar-21 16:24 016 0 gusting 4 20.6
2019-Mar-21 16:19 297 0 gusting 6 20.6
2019-Mar-21 16:14 299 0 gusting 6 20.6
2019-Mar-21 16:09 266 0 gusting 3 20.6
2019-Mar-21 16:04 012 0 gusting 4 20.6
2019-Mar-21 15:59 237 0 gusting 4 20.6
2019-Mar-21 15:54 279 0 gusting 4 20.6
2019-Mar-21 15:49 293 0 gusting 5 20.6
2019-Mar-21 15:44 015 0 gusting 5 20.6
2019-Mar-21 15:39 316 0 gusting 5 20.6
2019-Mar-21 15:34 290 20.6
2019-Mar-21 15:29 293 20.6
2019-Mar-21 15:24 340 0 gusting 4 20.6
2019-Mar-21 15:19 288 0 gusting 3 20.6
2019-Mar-21 15:14 255 0 gusting 3 20.6
2019-Mar-21 15:09 332 0 gusting 6 20.0
2019-Mar-21 15:04 253 0 gusting 6 20.0
2019-Mar-21 14:59 305 20.0
2019-Mar-21 14:54 358 20.0
2019-Mar-21 14:49 139 20.0
2019-Mar-21 14:44 334 0 gusting 6 19.4
2019-Mar-21 14:39 352 0 gusting 6 19.4
2019-Mar-21 14:34 302 19.4
2019-Mar-21 14:29 282 19.4
2019-Mar-21 14:24 349 18.9
2019-Mar-21 14:19 354 18.9
2019-Mar-21 14:14 004 18.9
2019-Mar-21 14:09 293 18.3
2019-Mar-21 14:04 315 18.3
2019-Mar-21 13:59 024 18.3
2019-Mar-21 13:54 302 17.8
2019-Mar-21 13:49 020 17.8
2019-Mar-21 13:44 322 17.2
2019-Mar-21 13:39 342 17.2
2019-Mar-21 13:34 283 16.7
2019-Mar-21 13:29 324 16.7
2019-Mar-21 13:24 297 16.1
2019-Mar-21 13:19 297 16.1
2019-Mar-21 13:14 291 15.6
2019-Mar-21 13:09 300 15.6
2019-Mar-21 13:04 300 15.0
2019-Mar-21 12:59 290 14.4
2019-Mar-21 12:54 290 14.4
2019-Mar-21 12:49 290 13.9
2019-Mar-21 12:44 290 13.9
2019-Mar-21 12:39 290 13.3
2019-Mar-21 12:34 290 13.3
2019-Mar-21 12:29 290 12.8
2019-Mar-21 12:24 290 12.8
2019-Mar-21 12:19 290 12.2
2019-Mar-21 12:14 290 12.2
2019-Mar-21 12:09 290 12.2
2019-Mar-21 12:04 290 12.2
2019-Mar-21 11:59 290 12.2
2019-Mar-21 11:54 290 12.2
2019-Mar-21 11:49 290 11.7
2019-Mar-21 11:44 290 11.7
2019-Mar-21 11:39 290 11.7
2019-Mar-21 11:34 290 11.7
2019-Mar-21 11:29 290 11.7
2019-Mar-21 11:24 290 11.7
2019-Mar-21 11:19 290 11.7
2019-Mar-21 11:14 290 11.7
2019-Mar-21 11:09 290 11.7
2019-Mar-21 11:04 290 11.7
2019-Mar-21 10:59 290 11.7
2019-Mar-21 10:54 290 12.2
2019-Mar-21 10:49 290 12.2
2019-Mar-21 10:44 290 12.2
2019-Mar-21 10:39 290 12.2
2019-Mar-21 10:34 290 12.2
2019-Mar-21 10:29 290 12.2
2019-Mar-21 10:24 290 12.2
2019-Mar-21 10:19 290 12.2
2019-Mar-21 10:14 290 12.8
2019-Mar-21 10:08 290 12.8
2019-Mar-21 10:03 290 12.8
2019-Mar-21 09:58 290 12.8
2019-Mar-21 09:53 290 12.8
2019-Mar-21 09:48 290 12.8
2019-Mar-21 09:43 290 12.8
2019-Mar-21 09:38 290 12.8
2019-Mar-21 09:33 290 12.8
2019-Mar-21 09:28 290 12.8
2019-Mar-21 09:23 290 12.8
2019-Mar-21 09:18 290 12.8
2019-Mar-21 09:13 290 12.8
2019-Mar-21 09:08 290 13.3
2019-Mar-21 09:03 290 13.3
2019-Mar-21 08:58 290 13.3
2019-Mar-21 08:53 290 13.3
2019-Mar-21 08:48 290 13.3
2019-Mar-21 08:43 290 13.3
2019-Mar-21 08:38 290 13.3
2019-Mar-21 08:33 290 13.3
2019-Mar-21 08:28 290 13.9
2019-Mar-21 08:23 290 13.9
2019-Mar-21 08:18 290 13.9
2019-Mar-21 08:13 290 13.9
2019-Mar-21 08:08 290 13.9
2019-Mar-21 08:03 290 13.9
2019-Mar-21 07:58 290 13.9
2019-Mar-21 07:53 290 13.9
2019-Mar-21 07:48 290 13.9
2019-Mar-21 07:43 290 13.9
2019-Mar-21 07:38 290 13.9
2019-Mar-21 07:33 290 14.4
2019-Mar-21 07:28 290 14.4
2019-Mar-21 07:23 290 14.4
2019-Mar-21 07:18 290 14.4
2019-Mar-21 07:13 290 15.0
2019-Mar-21 07:08 290 15.0
2019-Mar-21 07:03 290 15.0
2019-Mar-21 06:58 290 15.0
2019-Mar-21 06:53 290 15.0
2019-Mar-21 06:48 290 15.0
2019-Mar-21 06:43 290 15.0
2019-Mar-21 06:38 290 15.0
2019-Mar-21 06:33 290 15.0
2019-Mar-21 06:28 290 15.0
2019-Mar-21 06:23 290 15.0
2019-Mar-21 06:18 290 15.0
2019-Mar-21 06:13 290 15.0
2019-Mar-21 06:08 290 14.4
2019-Mar-21 06:03 290 14.4
2019-Mar-21 05:58 290 15.0
2019-Mar-21 05:53 290 15.0
2019-Mar-21 05:48 290 15.0
2019-Mar-21 05:43 290 15.0
2019-Mar-21 05:38 290 15.0
2019-Mar-21 05:33 290 15.6
2019-Mar-21 05:28 290 15.6
2019-Mar-21 05:23 290 15.6
2019-Mar-21 05:18 290 15.6
2019-Mar-21 05:13 290 16.1
2019-Mar-21 05:08 290 16.1
2019-Mar-21 05:03 290 16.1
2019-Mar-21 04:58 290 16.1
2019-Mar-21 04:53 290 16.1
2019-Mar-21 04:48 290 16.7
2019-Mar-21 04:43 290 16.7
2019-Mar-21 04:38 290 16.7
2019-Mar-21 04:33 290 17.2
2019-Mar-21 04:28 290 17.2
2019-Mar-21 04:23 290 17.2
2019-Mar-21 04:18 290 17.8
2019-Mar-21 04:13 290 17.8
2019-Mar-21 04:08 290 17.8
2019-Mar-21 04:03 290 17.8
2019-Mar-21 03:58 290 18.3
2019-Mar-21 03:53 304 18.3
2019-Mar-21 03:48 304 18.3
2019-Mar-21 03:43 304 18.3
2019-Mar-21 03:38 304 18.3
2019-Mar-21 03:33 304 18.3
2019-Mar-21 03:28 306 18.3
2019-Mar-21 03:23 306 18.3
2019-Mar-21 03:18 314 18.3
2019-Mar-21 03:13 314 18.3
2019-Mar-21 03:08 292 18.3
2019-Mar-21 03:03 296 18.3
2019-Mar-21 02:58 174 18.3
2019-Mar-21 02:53 350 18.3
2019-Mar-21 02:48 342 18.3
2019-Mar-21 02:43 323 18.3
2019-Mar-21 02:38 350 18.3
2019-Mar-21 02:33 288 18.3
2019-Mar-21 02:28 304 18.3
2019-Mar-21 02:23 306 18.3
2019-Mar-21 02:18 011 18.3
2019-Mar-21 02:13 018 18.3
2019-Mar-21 02:08 307 18.3
2019-Mar-21 02:03 307 18.3
2019-Mar-21 01:58 307 18.3
2019-Mar-21 01:53 335 18.3
2019-Mar-21 01:48 335 18.3
2019-Mar-21 01:43 336 18.3
2019-Mar-21 01:38 335 18.3
2019-Mar-21 01:33 334 18.3
2019-Mar-21 01:28 334 18.3
2019-Mar-21 01:23 328 18.3
2019-Mar-21 01:18 348 18.3
2019-Mar-21 01:13 309 18.3
2019-Mar-21 01:08 312 18.3
2019-Mar-21 01:03 293 18.3
2019-Mar-21 00:58 293 18.3
2019-Mar-21 00:53 326 18.3
2019-Mar-21 00:48 302 18.3
2019-Mar-21 00:43 352 18.3
2019-Mar-21 00:38 290 18.3
2019-Mar-21 00:33 321 18.9
2019-Mar-21 00:28 332 18.9
2019-Mar-21 00:23 314 18.9
2019-Mar-21 00:18 351 18.9
2019-Mar-21 00:13 295 19.4
2019-Mar-21 00:08 098 19.4
2019-Mar-21 00:03 343 19.4
2019-Mar-20 23:58 323 19.4
2019-Mar-20 23:53 319 20.0
2019-Mar-20 23:48 331 0 gusting 6 20.0
2019-Mar-20 23:43 354 0 gusting 6 20.0
2019-Mar-20 23:38 342 20.6
2019-Mar-20 23:33 309 20.6
2019-Mar-20 23:28 288 21.1
2019-Mar-20 23:23 354 21.7
2019-Mar-20 23:18 298 21.7
2019-Mar-20 23:13 321 0 gusting 4 21.7
2019-Mar-20 23:08 320 0 gusting 4 22.2
2019-Mar-20 23:03 322 0 gusting 5 22.2
2019-Mar-20 22:58 331 0 gusting 5 22.8
2019-Mar-20 22:53 001 0 gusting 6 22.8
2019-Mar-20 22:48 304 0 gusting 6 22.8
2019-Mar-20 22:43 006 0 gusting 5 23.3
2019-Mar-20 22:38 349 1 gusting 5 23.3
2019-Mar-20 22:33 314 0 gusting 5 23.3
2019-Mar-20 22:28 006 0 gusting 5 23.9
2019-Mar-20 22:23 345 0 gusting 5 23.9
2019-Mar-20 22:18 343 0 gusting 4 23.9
2019-Mar-20 22:13 313 0 gusting 4 23.9
2019-Mar-20 22:08 344 1 gusting 4 23.9
2019-Mar-20 22:03 328 0 gusting 4 23.9
2019-Mar-20 21:58 24.4
2019-Mar-20 21:53 318 1 gusting 6 23.9
2019-Mar-20 21:48 323 0 gusting 6 24.4
2019-Mar-20 21:43 259 0 gusting 4 24.4
2019-Mar-20 21:38 359 0 gusting 4 24.4
2019-Mar-20 21:33 332 25.0
2019-Mar-20 21:28 347 25.0
2019-Mar-20 21:23 349 0 gusting 3 24.4
2019-Mar-20 21:18 342 25.0
2019-Mar-20 21:13 002 25.0
2019-Mar-20 21:08 044 24.4
2019-Mar-20 21:03 034 23.9
2019-Mar-20 20:58 344 23.9
2019-Mar-20 20:53 039 23.9
2019-Mar-20 20:48 110 23.9
2019-Mar-20 20:43 046 23.9
2019-Mar-20 20:38 079 23.9
2019-Mar-20 20:33 045 23.9
2019-Mar-20 20:28 028 23.9
2019-Mar-20 20:23 044 24.4
2019-Mar-20 20:18 015 0 gusting 5 25.0
2019-Mar-20 20:13 004 0 gusting 5 25.0
2019-Mar-20 20:08 004 25.0
2019-Mar-20 20:03 027 25.0
2019-Mar-20 19:58 063 25.0
2019-Mar-20 19:53 050 25.0
2019-Mar-20 19:48 356 24.4
2019-Mar-20 19:43 255 24.4
2019-Mar-20 19:38 040 24.4
2019-Mar-20 19:32 341 23.9
2019-Mar-20 19:28 356 0 gusting 4 24.4
2019-Mar-20 19:23 026 0 gusting 3 24.4
2019-Mar-20 19:17 046 0 gusting 3 24.4
2019-Mar-20 19:13 006 0 gusting 1 24.4
2019-Mar-20 19:07 005 0 gusting 3 24.4
2019-Mar-20 19:03 005 0 gusting 3 24.4
2019-Mar-20 18:57 255 0 gusting 3 24.4
2019-Mar-20 18:52 128 0 gusting 3 24.4
2019-Mar-20 18:47 021 0 gusting 4 24.4
2019-Mar-20 18:42 046 0 gusting 5 23.9
2019-Mar-20 18:37 028 0 gusting 5 23.9
2019-Mar-20 18:32 056 0 gusting 3 23.3
2019-Mar-20 18:27 356 0 gusting 5 23.3
2019-Mar-20 18:22 012 0 gusting 5 23.9
2019-Mar-20 18:17 043 0 gusting 3 23.9
2019-Mar-20 18:12 249 0 gusting 5 23.3
2019-Mar-20 18:07 002 0 gusting 5 23.9
2019-Mar-20 18:02 043 1 gusting 6 23.9
2019-Mar-20 17:57 035 1 gusting 6 23.9
2019-Mar-20 17:52 318 0 gusting 5 23.3
2019-Mar-20 17:47 043 0 gusting 4 23.3
2019-Mar-20 17:42 280 0 gusting 3 22.8
2019-Mar-20 17:37 340 0 gusting 3 22.8
2019-Mar-20 17:32 034 0 gusting 4 22.8
2019-Mar-20 17:27 035 0 gusting 5 22.8
2019-Mar-20 17:22 348 0 gusting 5 22.8
2019-Mar-20 17:17 303 0 gusting 4 22.8
2019-Mar-20 17:12 015 0 gusting 3 22.8
2019-Mar-20 17:07 073 0 gusting 3 22.8
2019-Mar-20 17:02 300 0 gusting 3 22.8
2019-Mar-20 16:57 352 0 gusting 5 22.8
2019-Mar-20 16:52 268 0 gusting 5 22.8
2019-Mar-20 16:47 003 0 gusting 4 22.8
2019-Mar-20 16:42 274 0 gusting 3 22.2
2019-Mar-20 16:37 056 0 gusting 3 22.2
2019-Mar-20 16:32 003 0 gusting 3 22.2
2019-Mar-20 16:27 010 0 gusting 3 22.2
2019-Mar-20 16:22 042 0 gusting 3 22.2
2019-Mar-20 16:17 204 0 gusting 2 22.2
2019-Mar-20 16:12 353 0 gusting 4 21.7
2019-Mar-20 16:07 047 0 gusting 4 21.7
2019-Mar-20 16:02 328 21.7
2019-Mar-20 15:57 030 21.7
2019-Mar-20 15:52 167 21.1
2019-Mar-20 15:47 006 0 gusting 2 21.1
2019-Mar-20 15:42 032 0 gusting 2 20.6
2019-Mar-20 15:37 040 0 gusting 4 20.6
2019-Mar-20 15:32 351 0 gusting 4 20.6
2019-Mar-20 15:27 053 0 gusting 3 21.1
2019-Mar-20 15:22 028 0 gusting 4 20.6
2019-Mar-20 15:17 032 0 gusting 5 20.0
2019-Mar-20 15:12 234 0 gusting 6 20.0
2019-Mar-20 15:07 354 0 gusting 6 19.4
2019-Mar-20 15:02 029 0 gusting 4 19.4
2019-Mar-20 14:57 021 0 gusting 2 19.4
2019-Mar-20 14:52 058 0 gusting 4 19.4
2019-Mar-20 14:47 049 1 gusting 6 18.9
2019-Mar-20 14:42 038 1 gusting 6 18.3
2019-Mar-20 14:37 017 0 gusting 6 18.3
2019-Mar-20 14:32 031 0 gusting 5 18.3
2019-Mar-20 14:27 051 0 gusting 6 18.3
2019-Mar-20 14:22 174 0 gusting 6 18.3
2019-Mar-20 14:17 020 0 gusting 6 17.8
2019-Mar-20 14:12 047 0 gusting 5 17.8
2019-Mar-20 14:07 125 0 gusting 4 17.8
2019-Mar-20 14:02 049 0 gusting 4 17.2
2019-Mar-20 13:57 039 0 gusting 5 17.2
2019-Mar-20 13:52 359 0 gusting 5 16.7
2019-Mar-20 13:47 143 0 gusting 5 16.7
2019-Mar-20 13:42 043 0 gusting 5 16.7
2019-Mar-20 13:37 015 0 gusting 4 16.7
2019-Mar-20 13:32 056 0 gusting 5 16.7
2019-Mar-20 13:27 041 0 gusting 5 16.7
2019-Mar-20 13:22 029 0 gusting 4 16.7
2019-Mar-20 13:17 041 1 gusting 6 16.7
2019-Mar-20 13:12 038 1 gusting 6 16.7
2019-Mar-20 13:07 041 0 gusting 4 16.7
2019-Mar-20 13:02 138 0 gusting 3 16.1
2019-Mar-20 12:57 041 0 gusting 5 16.1
2019-Mar-20 12:52 051 0 gusting 5 16.1
2019-Mar-20 12:47 044 0 gusting 4 16.1
2019-Mar-20 12:42 342 16.1
2019-Mar-20 12:37 006 0 gusting 4 16.1
2019-Mar-20 12:32 051 1 gusting 5 16.1
2019-Mar-20 12:27 035 0 gusting 5 15.6
2019-Mar-20 12:22 031 0 gusting 4 15.6
2019-Mar-20 12:17 034 0 gusting 5 15.6
2019-Mar-20 12:12 027 0 gusting 5 15.6
2019-Mar-20 12:07 048 0 gusting 5 15.6
2019-Mar-20 12:02 027 0 gusting 3 15.6
2019-Mar-20 11:57 039 0 gusting 3 15.6
2019-Mar-20 11:52 069 0 gusting 5 15.6
2019-Mar-20 11:47 036 1 gusting 6 15.6
2019-Mar-20 11:42 050 0 gusting 6 15.6
2019-Mar-20 11:37 044 0 gusting 4 15.6
2019-Mar-20 11:32 024 0 gusting 5 15.6
2019-Mar-20 11:27 053 0 gusting 5 15.6
2019-Mar-20 11:22 042 1 gusting 5 15.6
2019-Mar-20 11:17 048 0 gusting 4 15.6
2019-Mar-20 11:12 047 0 gusting 4 15.6
2019-Mar-20 11:07 146 0 gusting 4 15.6
2019-Mar-20 11:02 030 0 gusting 5 15.6
2019-Mar-20 10:57 050 0 gusting 5 15.6
2019-Mar-20 10:52 027 0 gusting 5 15.6
2019-Mar-20 10:47 352 0 gusting 5 15.6
2019-Mar-20 10:42 038 0 gusting 3 15.6
2019-Mar-20 10:37 079 0 gusting 5 15.6
2019-Mar-20 10:32 359 0 gusting 6 15.6
2019-Mar-20 10:27 039 0 gusting 6 15.6
2019-Mar-20 10:22 042 0 gusting 4 15.6
2019-Mar-20 10:17 049 0 gusting 4 15.0
2019-Mar-20 10:12 037 0 gusting 3 15.0
2019-Mar-20 10:07 039 0 gusting 3 15.0
2019-Mar-20 10:02 049 0 gusting 4 15.6
2019-Mar-20 09:57 025 0 gusting 4 15.6
2019-Mar-20 09:52 046 0 gusting 5 15.6
2019-Mar-20 09:47 047 0 gusting 5 15.6
2019-Mar-20 09:42 041 0 gusting 4 15.6
2019-Mar-20 09:37 027 0 gusting 4 15.6
2019-Mar-20 09:32 030 0 gusting 3 15.0
2019-Mar-20 09:27 359 0 gusting 8 15.6
2019-Mar-20 09:22 060 0 gusting 8 15.6
2019-Mar-20 09:17 108 0 gusting 5 15.0
2019-Mar-20 09:12 340 0 gusting 5 15.0
2019-Mar-20 09:07 037 0 gusting 5 15.0
2019-Mar-20 09:02 020 0 gusting 4 15.0
2019-Mar-20 08:57 044 0 gusting 3 15.0
2019-Mar-20 08:52 149 0 gusting 4 15.0
2019-Mar-20 08:47 15.0
2019-Mar-20 08:42 052 1 gusting 5 15.0
2019-Mar-20 08:37 021 0 gusting 4 15.0
2019-Mar-20 08:32 011 0 gusting 4 15.0
2019-Mar-20 08:27 058 0 gusting 4 15.0
2019-Mar-20 08:22 047 0 gusting 5 15.0
2019-Mar-20 08:17 019 0 gusting 5 15.0
2019-Mar-20 08:12 190 1 gusting 5 15.0
2019-Mar-20 08:07 044 0 gusting 5 15.0
2019-Mar-20 08:02 040 15.0
2019-Mar-20 07:57 004 0 gusting 3 15.0
2019-Mar-20 07:52 013 0 gusting 4 15.0
2019-Mar-20 07:47 057 0 gusting 5 15.0
2019-Mar-20 07:42 046 0 gusting 5 15.0
2019-Mar-20 07:37 357 0 gusting 4 15.0
2019-Mar-20 07:32 033 0 gusting 4 15.0
2019-Mar-20 07:27 044 0 gusting 3 15.0
2019-Mar-20 07:22 038 0 gusting 5 15.0
2019-Mar-20 07:17 042 0 gusting 5 15.0
2019-Mar-20 07:12 023 15.0
2019-Mar-20 07:07 038 0 gusting 4 15.0
2019-Mar-20 07:02 343 0 gusting 4 15.0
2019-Mar-20 06:57 202 0 gusting 3 15.0
2019-Mar-20 06:52 088 0 gusting 4 15.0
2019-Mar-20 06:47 022 0 gusting 4 15.6
2019-Mar-20 06:42 023 0 gusting 5 15.6
2019-Mar-20 06:37 025 0 gusting 5 15.6
2019-Mar-20 06:32 042 15.6
2019-Mar-20 06:27 158 15.6
2019-Mar-20 06:22 020 15.6
2019-Mar-20 06:17 073 15.6
2019-Mar-20 06:12 040 15.6
2019-Mar-20 06:07 032 0 gusting 4 15.6
2019-Mar-20 06:02 052 0 gusting 4 15.6
2019-Mar-20 05:57 307 0 gusting 2 15.6
2019-Mar-20 05:52 011 0 gusting 5 15.6
2019-Mar-20 05:47 038 1 gusting 6 15.6
2019-Mar-20 05:42 041 1 gusting 6 15.6
2019-Mar-20 05:37 079 1 gusting 8 15.6
2019-Mar-20 05:32 355 1 gusting 8 15.6
2019-Mar-20 05:27 029 1 gusting 6 15.6
2019-Mar-20 05:22 064 1 gusting 6 15.6
2019-Mar-20 05:17 191 0 gusting 6 15.6
2019-Mar-20 05:12 030 0 gusting 6 15.6
2019-Mar-20 05:07 049 1 gusting 6 15.6
2019-Mar-20 05:02 041 0 gusting 4 15.6